SL-16 DEB, 39304

Orbit data source: Space-Track

SL-16 DEB, 39304 is space debris in LEO originally from a launch on Fri, 25 Dec 1992 UTC launched from the Tyuratam Missile And Space Complex (TTMTR). Debris objects in space refer to the collection of defunct objects orbiting the Earth. Examples of debris include non-operational satellites, rocket bodies, and fragments generated from explosions, collisions, or faulty payload assembly.

Loading next visibility...
Identifier
39304, 1992-093JV
Orbit
LEO
Country
Flag of CISCIS
Related business
Manufacturer
Unknown
Mission
Spacecraft
Bus & Motor
Unknown
Mass
Unknown
Launch date (UTC)
1992-12-25 (33 years ago)
Launch vehicle
Unknown
Launch site
Tyuratam Missile And Space Complex (TTMTR)
Object type
Payload
Rocket body
Debris
Shape & HBR
Unknown shape, 0.1 m
Radar Cross Section
Small (<0.1 m²)

Expand to show TLE details & history
Last TLE update: 5 days ago

TLE from 5 days ago
0 SL-16 DEB
1 39304U 92093JV  26032.39473904  .00000494  00000-0  33377-3 0  9997
2 39304  71.2033 269.0319 0089844 199.3003 160.4706 14.03180851641966
Epoch: 2026-02-01T09:28Z
TLE epoch observation values (Epoch: 2026-02-01T09:28:25.453Z)
Latitude
0.00004°
Longitude
-4.67914°
Altitude
946.757 km
Speed
7.347 km/s
True Right ascension
17h 56m 07s
True Declination
0° 00' 00"
Sunlit
Object was in daylight at epoch
Visualization orbit readout
Latitude
Unknown
Longitude
Unknown
Altitude
Unknown
Speed
Unknown
Apparent Right ascension
Unknown
Apparent Declination
Unknown
Sunlit
N/A
Visualization observer readout
Local Sidereal Time
12:05:28
Azimuth
Unknown
Elevation
Unknown
Doppler factor
Unknown
Orbital elements
Apogee altitude
945.934 km
Perigee altitude
815.501 km
Semi-major axis
7,258.855 km
Eccentricity
0.00898
Inclination
71.2033°
RAAN
269.0319°
Arg. of periapsis
199.3003°
True anomaly
160.81116°
Mean anomaly
160.4706°
Eccentric anomaly
160.64124°
Mean motion
3.50947 °/min
Orbital period
102.58 mins
BSTAR
0.00033377
Loading maneuver chart data...
Computing Atmospheric mass density...
Loading historical data...
Loading historical data...
Loading historical data...
Loading historical data...
Loading historical data...
Loading historical data...
Loading historical data...

Documentation

Showing up to 5 results
|